Location: Canazei
(46.4667°N, 11.7667°E)
Time: 03:26:26
(UTC+00:00)

NOSS 3-4 (C) - Pass Details

Date: 21 April 2021
Orbit: 873 x 1339 km, 63.4° (Epoch: 06 May)

Event Time Altitude Azimuth Distance (km) Brightness Sun altitude
Rises 01:46:49 0° 320° (NW) 3,804 6.7 -22.1°
Reaches altitude 10° 01:49:19 10° 321° (NW) 2,910 6.1 -21.8°
Maximum altitude 01:56:19 90° 27° (NNE) 1,171 3.8 -21.0°
Drops below altitude 10° 02:04:09 10° 143° (SE) 3,233 6.1 -20.0°
Sets 02:07:03 0° 144° (SE) 4,247 6.8 -19.7°
